Wind_Speed
24 24 24 24 24 24 24 24 24 23 22 22 21 21 21 20 20 19 18 18 18 19 19 20 20 21 21 21 22 22 22 22 22 22 22 22 22 22 23 23 23 23 23 23 24 25 26 26 27 28 28 29 29 29 30 31 32 34 35 35 34 32 31 31 31 31 30 27 25 26 29 30 31 31 31 31 30 29 30 30 28 29 28 25 24 26 25 24
25 24 25 25 25 25 24 24 24 24 23 23 22 22 22 21 20 20 20 19 19 19 19 20 20 21 21 22 22 22 22 21 21 21 21 22 22 21 22 22 22 23 23 24 24 25 26 26 27 28 29 30 30 30 31 32 33 34 36 36 34 33 32 32 33 33 31 28 26 27 30 32 32 32 33 32 32 31 30 31 30 29 28 26 26 27 24 23
25 25 25 25 25 25 25 24 24 24 24 23 23 23 22 22 21 21 21 20 20 20 20 20 21 22 22 22 22 23 23 23 22 22 22 22 21 21 21 21 22 23 23 24 25 25 26 26 27 28 29 29 30 30 32 33 34 36 37 36 34 33 33 33 34 33 32 30 28 30 33 34 34 35 34 34 33 31 31 31 31 29 29 28 27 28 24 23
24 25 25 25 25 26 26 25 25 24 24 24 23 23 23 23 22 21 22 21 21 21 21 21 22 22 23 23 22 23 24 25 25 24 23 23 22 21 22 22 23 23 24 25 26 26 26 27 27 28 28 29 30 30 32 33 34 36 36 36 35 34 35 34 34 34 34 33 31 32 36 36 37 37 36 35 33 32 32 31 32 31 30 31 29 29 25 25
24 24 24 24 25 25 26 26 25 25 24 24 24 23 23 23 23 22 22 22 22 22 22 22 23 23 23 23 23 23 24 25 25 25 25 24 23 23 23 24 24 25 25 26 26 26 26 27 27 27 28 29 30 31 33 33 34 35 35 36 35 35 36 35 35 36 35 36 34 35 37 38 39 38 37 37 34 33 33 32 33 32 31 32 32 30 27 27
23 24 24 24 24 24 25 25 25 25 25 24 24 24 24 23 23 23 23 23 22 22 23 23 23 24 24 23 23 23 23 24 24 25 25 25 24 24 25 25 25 25 26 26 25 25 25 26 26 27 28 29 30 31 32 33 34 35 35 36 35 35 36 35 36 38 38 38 37 36 38 39 39 39 38 37 35 33 34 34 34 34 33 34 33 31 29 29
23 23 24 24 24 25 25 25 25 25 25 25 25 24 24 24 23 24 24 23 23 23 23 23 23 24 24 23 23 23 22 22 23 23 23 24 24 24 25 25 25 25 25 25 24 24 24 25 26 26 27 28 30 31 31 32 33 34 35 35 36 36 36 35 36 38 39 40 39 38 38 39 40 40 39 38 36 35 35 35 35 35 35 35 34 31 29 30
22 23 23 23 24 24 25 25 25 25 25 25 25 25 24 24 24 24 24 24 23 23 23 23 24 23 23 23 23 22 21 21 22 21 22 22 23 24 24 25 25 24 24 23 23 23 24 24 24 25 25 26 27 28 28 29 30 31 32 33 34 35 36 36 36 37 38 39 40 39 39 40 40 40 39 39 38 37 36 36 37 37 36 35 34 31 30 30
21 22 22 23 23 24 25 25 25 25 25 25 25 25 24 24 24 24 24 24 24 23 23 23 23 23 23 23 22 21 20 20 21 20 21 22 23 23 24 24 23 23 23 22 22 22 22 22 22 22 22 22 23 24 24 25 26 27 28 30 32 33 34 34 34 36 37 38 39 39 40 40 41 41 40 39 40 39 37 37 38 39 38 36 35 32 31 29
21 21 22 22 23 24 25 25 25 25 25 25 25 25 24 24 24 24 24 24 24 23 23 23 23 22 22 22 22 21 20 20 20 20 21 22 23 23 23 22 22 21 21 21 20 20 21 20 20 19 19 19 20 21 21 23 23 25 26 27 29 31 32 32 32 34 35 36 37 38 38 39 41 41 41 41 41 40 39 39 40 41 40 38 36 33 32 30
22 21 22 22 23 23 24 25 25 25 25 25 25 25 24 24 23 23 23 23 23 23 23 23 23 22 21 21 22 22 21 21 20 21 22 22 22 22 21 21 20 20 19 19 18 18 18 18 17 17 17 18 20 21 22 23 23 25 26 27 28 30 32 33 32 33 33 33 35 36 37 38 40 41 42 43 43 43 42 42 42 43 42 40 38 35 34 33
23 23 23 23 23 23 24 25 25 26 25 25 25 24 24 24 23 23 22 23 23 23 23 23 22 21 20 21 21 22 21 21 20 21 21 21 21 21 20 19 19 18 18 18 18 17 17 16 17 17 18 19 21 22 22 22 23 24 25 26 27 28 30 32 33 33 32 30 33 37 37 38 40 41 43 46 46 46 45 44 45 44 44 43 40 37 36 35
25 24 24 24 24 24 25 25 26 26 26 25 24 23 23 23 23 23 22 22 23 23 23 23 22 20 20 20 21 21 21 21 20 20 20 20 20 20 19 18 17 17 17 18 17 16 16 16 17 18 19 20 20 21 21 21 22 23 24 25 25 25 28 31 32 33 31 29 33 36 36 37 40 40 41 46 48 48 47 47 46 45 45 44 42 40 38 38
25 25 25 25 25 26 27 28 28 27 26 25 23 23 22 23 23 22 22 23 23 24 23 23 21 20 19 20 20 21 21 21 20 19 19 19 19 19 19 18 17 16 17 17 16 16 16 17 19 19 20 20 20 21 21 21 22 23 23 23 24 24 26 29 31 31 30 30 33 35 34 35 35 36 40 45 48 48 49 48 47 46 47 46 45 43 40 39
26 26 25 26 27 28 28 29 29 27 26 24 23 22 22 22 22 22 22 23 24 24 23 22 21 19 18 19 20 21 21 21 20 19 18 18 18 18 18 17 17 17 17 17 17 17 17 18 20 20 20 20 20 21 21 22 22 22 21 21 22 22 24 27 29 30 29 29 32 32 33 32 30 34 41 44 46 48 50 50 48 47 48 49 47 45 43 42
27 27 27 27 28 28 26 28 29 26 25 24 22 22 22 22 22 22 22 23 24 24 23 22 21 20 18 19 20 20 20 20 20 19 18 17 17 17 17 17 18 17 16 17 17 16 17 18 20 20 20 21 21 21 21 22 21 20 19 19 20 21 22 24 25 28 29 29 30 31 31 28 28 34 40 41 42 46 49 51 51 49 50 50 50 47 45 44
28 28 28 28 28 27 26 28 29 26 25 24 22 22 22 22 22 22 22 23 24 23 23 22 21 20 19 19 19 19 19 20 19 19 18 16 16 17 16 17 18 17 16 16 16 16 17 18 20 20 20 20 20 20 21 21 20 19 18 18 19 20 21 21 23 25 28 29 29 31 30 25 26 31 35 37 39 44 48 52 52 51 51 52 51 50 47 46
28 28 28 28 27 26 27 28 29 27 25 24 23 22 22 22 23 22 22 23 23 23 22 22 21 21 19 19 19 17 18 19 19 18 18 16 16 17 16 17 18 17 16 16 15 15 17 19 19 20 20 20 20 20 20 20 20 20 19 18 18 20 21 21 22 23 25 27 28 31 29 24 25 28 31 34 36 41 47 51 53 52 52 53 53 52 50 47
28 29 29 28 27 27 28 28 27 26 25 24 23 23 23 23 23 22 22 22 23 23 22 21 21 21 20 19 19 17 16 18 17 17 18 16 16 17 17 17 17 17 17 17 16 16 17 19 19 20 20 19 19 19 19 19 19 19 19 18 18 20 20 21 22 23 24 26 27 29 28 24 26 28 30 32 34 38 43 48 51 52 52 53 54 54 52 49
28 28 29 29 28 28 28 28 26 25 25 24 23 22 22 23 23 22 23 23 23 23 22 21 21 20 19 19 19 18 17 16 15 15 16 16 17 18 18 18 19 19 19 17 16 16 18 20 19 19 20 19 18 19 19 19 18 18 18 18 17 18 19 20 22 22 22 24 27 28 27 24 25 28 30 31 32 35 38 43 47 50 52 53 55 55 54 51
28 28 29 29 29 29 29 27 26 25 24 24 23 22 22 22 23 22 22 23 23 23 22 21 21 20 19 18 18 18 17 16 14 13 15 16 18 19 19 19 20 20 18 17 16 17 19 19 19 19 19 18 18 18 19 18 17 17 17 17 17 16 17 19 20 21 21 24 27 28 27 25 24 28 30 31 32 32 33 36 41 46 50 53 55 56 56 53
28 29 29 29 30 30 29 28 26 25 23 22 22 22 22 22 23 23 23 23 23 22 22 21 20 19 18 18 18 17 16 15 14 14 15 16 17 19 19 19 19 18 16 16 17 18 18 18 18 19 18 17 19 19 19 18 17 17 17 17 17 16 16 17 18 20 21 24 28 28 28 27 26 27 30 30 31 31 30 31 34 39 44 49 53 56 57 55
29 29 29 30 30 30 29 28 27 25 22 21 21 21 21 21 22 23 24 24 23 23 21 20 19 18 18 18 17 16 15 15 14 15 16 16 17 17 17 16 16 15 15 16 17 18 18 17 18 18 17 18 19 20 19 17 17 17 17 17 17 17 16 16 17 20 23 26 28 28 28 29 28 28 29 29 30 30 30 30 31 33 37 42 48 53 55 56
30 30 30 30 30 29 29 28 27 26 23 21 20 20 20 20 21 22 23 24 24 23 21 19 18 17 17 17 17 16 16 14 14 15 16 17 17 16 15 14 14 14 14 16 16 17 17 16 17 17 17 18 19 19 19 17 16 16 17 18 18 19 19 18 17 21 24 26 28 28 29 29 28 28 29 29 29 29 29 30 31 32 34 36 41 47 51 53
30 31 30 31 31 29 28 28 28 26 23 21 20 20 20 20 21 21 22 23 23 22 19 17 17 17 16 17 17 17 16 15 14 14 14 14 14 14 13 13 13 13 14 15 15 16 16 16 17 18 17 17 18 18 19 17 16 16 16 18 19 20 20 18 17 19 22 24 26 28 30 30 29 29 29 28 28 28 28 29 32 33 33 34 36 40 44 49
31 31 31 31 31 29 28 28 27 25 23 21 20 20 19 19 20 21 22 22 22 21 19 16 16 16 16 16 16 15 15 15 14 13 12 11 11 11 11 11 12 13 12 13 14 14 15 16 17 18 18 18 17 17 18 16 15 15 16 17 17 17 17 15 14 16 19 21 23 26 29 30 30 29 29 28 28 28 28 29 31 34 34 33 33 36 39 43
31 32 31 31 30 29 28 27 26 24 23 22 21 20 19 19 19 20 21 21 20 19 18 16 15 15 16 16 15 13 14 14 13 13 12 11 10 10 10 10 11 12 11 12 13 13 15 16 17 17 19 19 18 18 17 15 14 15 16 16 15 15 14 14 14 15 18 19 20 23 25 26 27 27 27 27 27 28 28 29 31 33 35 35 34 35 37 40
31 32 32 31 30 29 28 27 26 26 25 23 20 18 17 18 18 20 21 20 18 17 17 16 15 15 14 13 12 12 13 13 12 11 11 11 10 9 10 10 11 11 11 11 12 13 15 17 17 17 18 19 19 18 16 15 14 15 15 14 14 15 15 15 16 18 18 18 18 21 22 22 23 23 24 25 26 28 29 29 31 33 36 37 37 36 37 38
30 32 32 31 30 29 28 27 28 28 26 22 18 16 16 16 18 19 20 18 16 16 16 15 15 14 12 11 11 12 12 12 11 10 10 10 9 9 9 10 10 10 10 10 11 13 15 16 17 17 17 18 18 17 16 16 15 15 14 14 14 15 15 15 17 19 20 19 19 21 23 22 21 21 22 23 24 26 28 28 29 32 36 39 40 40 39 39
30 31 31 30 30 29 28 29 29 27 24 20 16 14 15 17 18 20 19 17 15 16 15 15 14 12 11 11 12 13 12 10 10 10 9 8 8 9 9 9 9 10 10 10 11 13 13 15 16 17 16 16 16 17 16 16 16 15 14 14 14 14 14 14 15 17 20 20 20 21 23 22 21 20 20 22 24 26 27 28 29 31 34 38 41 42 41 40
30 31 30 29 29 28 29 30 29 25 20 16 15 15 17 18 19 19 17 16 15 15 14 13 12 11 11 13 13 13 12 11 9 8 8 8 8 8 8 9 10 10 10 11 11 11 12 13 14 15 15 14 14 15 16 15 14 14 13 13 13 12 11 11 12 14 15 16 18 20 22 21 20 19 18 20 23 25 26 27 28 29 31 35 39 41 42 42
30 30 29 29 28 28 30 30 27 23 18 14 14 16 18 19 19 18 16 15 14 14 13 11 10 10 11 12 14 14 12 12 11 8 7 8 9 8 8 8 10 10 10 12 13 12 12 14 14 14 14 14 13 13 14 11 11 12 11 11 11 10 9 9 9 11 11 12 15 18 20 20 19 17 16 18 20 23 25 26 27 28 28 31 35 39 42 43
30 29 29 28 27 28 30 28 25 22 17 14 15 18 20 20 18 17 16 15 14 12 11 9 9 11 12 13 14 14 13 13 12 9 8 9 8 7 7 8 9 11 11 12 14 14 15 15 15 15 14 13 12 11 10 9 10 11 10 9 9 9 9 7 8 9 10 12 14 16 18 18 18 15 14 15 18 21 23 24 25 26 27 29 32 36 41 43
29 29 28 28 27 28 29 27 23 19 16 15 17 19 20 19 17 16 16 15 13 11 10 9 8 11 13 14 14 14 14 14 13 10 8 8 8 7 8 9 10 11 11 12 14 15 16 15 16 16 14 12 11 10 9 9 10 10 10 9 9 9 9 8 8 8 9 11 13 15 17 17 16 14 13 15 17 18 21 22 24 22 20 27 33 35 39 42
28 28 28 27 27 27 28 26 21 17 15 16 18 20 19 18 17 16 16 15 13 10 8 8 9 10 13 14 15 15 14 14 13 12 10 9 8 7 8 10 10 10 11 14 15 15 15 15 15 15 14 12 9 9 10 10 10 10 10 10 10 10 10 8 8 8 8 10 11 13 16 15 13 11 12 14 16 18 18 19 24 25 19 22 30 34 37 41
27 27 27 27 26 26 26 24 19 15 15 17 19 20 19 17 16 16 15 13 10 8 7 8 10 12 13 15 15 15 14 14 13 12 11 10 9 8 9 10 10 9 11 13 14 14 14 15 15 14 13 12 10 9 10 10 11 10 10 11 11 10 10 9 9 8 8 8 9 10 12 11 10 10 11 9 8 13 15 16 21 24 20 17 21 27 31 35
27 26 26 26 26 26 25 22 18 15 15 18 20 20 18 17 16 16 14 10 8 8 9 10 12 13 14 15 16 16 15 14 12 12 11 10 10 9 10 10 9 9 11 12 13 13 13 15 16 14 12 12 11 9 9 11 11 11 11 12 11 10 10 11 10 8 6 6 6 7 10 12 10 10 13 9 3 3 8 13 14 14 16 16 14 19 24 26
26 26 26 25 25 25 24 22 18 15 16 18 19 19 18 16 15 15 12 9 7 8 10 12 13 14 14 15 15 16 16 14 12 11 10 10 9 8 9 10 9 10 11 11 12 13 13 14 16 15 13 11 11 9 9 11 11 12 13 13 11 9 9 10 9 6 5 4 0 3 4 8 9 8 9 10 6 1 4 9 10 10 16 19 16 16 19 18
26 25 25 24 24 25 24 21 18 16 17 18 19 19 18 16 14 13 10 8 8 9 11 13 14 15 15 15 15 16 16 15 13 11 10 9 9 8 9 10 10 10 11 11 11 12 13 14 15 15 13 11 10 9 9 10 12 13 14 14 13 10 8 9 7 3 3 3 4 6 5 3 5 6 5 5 6 3 3 6 8 7 10 16 19 18 15 13
25 25 25 24 24 24 23 21 19 17 17 18 19 19 19 16 13 10 9 8 9 10 12 12 14 15 16 16 16 16 16 15 12 9 9 8 8 8 8 9 10 10 10 11 11 12 13 14 15 14 13 11 9 9 8 10 13 14 14 14 13 10 8 7 4 1 2 3 4 4 4 3 1 1 0 5 11 8 6 6 6 6 6 9 15 17 14 12
25 25 24 24 24 23 22 21 19 18 17 18 19 19 19 17 11 8 8 9 10 11 12 12 13 15 17 17 17 17 16 13 10 8 8 7 6 6 7 8 8 9 9 10 11 12 13 14 13 12 12 11 8 7 7 10 13 14 14 14 12 9 7 6 4 3 3 4 5 4 3 3 3 4 5 6 9 9 8 7 7 5 5 6 10 12 12 11
24 24 24 24 23 22 20 20 20 19 18 19 19 19 19 16 10 7 8 8 10 11 12 13 15 15 17 18 18 17 14 11 8 7 8 6 5 5 6 7 7 8 9 10 11 11 12 13 11 10 12 11 5 5 6 9 13 13 13 13 12 9 7 6 5 4 5 6 7 6 4 3 3 4 5 6 6 7 6 6 8 7 4 4 6 9 10 10
24 24 23 23 23 22 20 19 19 19 18 18 18 19 18 16 10 8 8 8 9 10 12 15 17 17 18 19 18 16 13 9 6 6 8 8 7 8 8 8 8 8 8 10 10 10 11 12 11 10 12 11 3 2 4 7 11 12 12 13 12 9 7 6 4 4 6 6 7 6 5 4 3 3 4 4 4 3 4 5 6 5 4 3 3 5 8 10
24 24 23 22 22 21 20 18 17 17 17 17 17 18 18 15 11 9 8 8 8 10 12 14 17 18 19 20 18 15 11 7 5 4 7 9 9 9 8 8 8 7 9 10 10 10 10 11 10 9 11 9 3 1 2 6 9 9 11 13 12 10 7 6 5 4 6 6 6 5 5 5 5 4 4 3 2 0 0 1 1 1 1 1 1 2 4 7
24 24 23 22 21 21 20 18 16 16 16 16 16 17 17 15 12 10 8 8 9 11 12 14 17 18 19 19 16 12 9 6 3 3 6 8 8 9 7 7 7 7 8 9 9 9 10 10 9 8 10 9 3 1 3 6 7 8 11 12 12 11 8 7 6 5 7 7 6 6 5 4 4 4 4 3 2 2 3 3 3 3 3 3 4 4 5 6
24 23 23 22 21 20 20 19 17 16 16 16 15 15 15 14 13 11 10 9 10 11 12 14 17 18 19 18 14 10 7 4 2 3 6 7 7 8 7 6 5 6 7 8 8 10 10 9 9 9 10 10 6 1 2 4 5 6 8 10 11 11 8 7 7 7 7 8 7 6 5 4 3 2 2 2 2 3 4 5 5 6 6 6 7 8 8 9
24 23 22 21 21 20 19 19 17 17 17 16 16 16 14 12 11 11 10 10 10 11 12 14 16 18 19 16 12 9 6 3 2 4 7 7 7 7 7 5 4 5 6 6 8 9 9 8 8 10 10 9 7 3 1 2 3 3 5 7 9 10 9 7 8 9 8 8 8 7 6 5 4 4 3 3 3 4 5 7 7 8 9 10 11 11 12 13
24 23 21 21 21 20 19 18 17 16 16 16 16 16 15 12 10 10 10 10 10 10 12 14 16 17 18 16 11 8 5 3 3 5 7 8 7 7 6 4 3 4 4 5 7 9 9 8 7 9 11 10 8 5 3 2 1 1 3 5 6 7 8 8 9 10 9 8 8 7 7 7 7 7 6 6 7 8 8 9 10 11 11 12 13 14 15 15
23 23 21 21 21 20 20 19 17 15 15 15 15 16 14 12 10 9 9 9 9 10 12 14 16 17 18 15 10 7 5 3 4 6 8 9 8 6 5 4 3 3 4 5 6 8 9 9 7 8 11 11 10 8 6 4 2 2 2 4 6 6 7 8 9 10 9 9 9 8 8 8 9 9 9 8 10 11 12 12 13 14 14 15 16 17 17 17
23 22 21 21 20 20 20 19 17 15 14 14 15 14 13 12 10 9 9 9 9 10 11 14 16 18 18 15 10 6 5 4 5 7 9 9 7 5 4 4 3 3 4 5 6 7 8 9 8 7 9 10 10 10 9 6 3 2 1 3 5 5 6 7 8 9 9 10 10 10 11 10 10 10 10 10 12 14 14 15 15 16 16 17 17 18 18 17
23 22 21 21 20 20 20 19 18 15 14 13 14 14 13 12 10 9 9 9 9 9 11 13 15 17 18 16 10 6 5 4 5 7 8 9 7 5 4 4 3 3 4 4 5 7 8 9 9 7 8 8 9 10 10 8 6 4 2 1 3 5 6 6 8 9 10 11 11 11 11 11 11 10 11 12 14 15 16 16 16 16 16 17 17 17 17 17
22 21 20 20 20 20 20 19 18 16 14 12 13 13 12 12 10 9 9 9 9 9 10 12 14 15 17 16 11 5 4 4 5 7 9 9 8 6 4 3 2 3 4 4 4 6 8 9 10 9 8 7 8 8 8 9 8 6 3 1 1 3 4 5 7 8 9 10 11 11 12 12 12 12 13 15 16 16 16 14 13 12 11 12 13 14 16 16
Wind_Direction
308 307 306 305 306 306 306 307 308 309 310 311 311 311 310 309 308 308 307 306 305 302 299 297 294 293 289 285 282 279 277 277 277 276 274 272 271 270 270 270 269 269 268 268 268 268 268 267 268 267 267 266 264 262 261 259 259 259 259 259 258 257 255 254 253 251 249 245 241 240 242 243 243 244 243 244 243 242 245 245 241 240 240 235 228 228 228 227
309 308 306 305 304 304 305 304 305 305 306 307 308 308 308 307 307 306 306 306 305 305 303 300 296 294 292 289 285 281 279 278 278 277 275 273 272 272 271 271 271 271 271 270 270 269 269 268 267 267 266 266 265 263 262 261 260 260 260 259 259 257 255 253 251 249 248 244 238 236 238 240 240 241 241 241 240 239 241 243 241 238 238 234 229 230 227 223
310 309 307 305 304 303 303 303 303 303 303 304 304 305 305 305 306 305 304 304 304 304 304 302 298 295 292 291 288 283 279 277 276 276 276 275 274 274 274 274 274 274 274 273 272 270 269 267 266 265 264 264 264 264 263 262 261 260 260 260 260 258 256 253 251 249 247 244 237 234 235 236 237 238 238 238 238 237 237 240 241 237 235 233 230 230 226 223
312 310 308 306 304 303 302 301 301 301 301 301 301 302 302 302 304 303 302 301 302 302 303 302 300 297 294 292 289 286 281 276 275 274 275 275 275 276 277 277 277 276 276 274 273 271 269 268 266 265 264 263 263 262 262 261 261 261 262 262 261 258 256 253 251 249 247 244 237 233 233 233 234 235 236 237 236 236 236 236 239 237 233 232 230 229 227 224
315 313 311 308 306 303 302 300 299 299 299 299 299 299 299 300 302 302 301 300 300 300 301 302 301 299 297 294 291 288 284 279 276 274 273 273 274 276 278 279 279 279 277 276 274 273 271 269 267 265 263 262 261 260 260 260 260 261 262 262 261 259 258 255 253 250 247 244 239 235 234 233 233 233 234 236 235 235 237 235 236 236 232 232 230 229 229 226
318 317 315 313 310 308 305 303 300 298 297 297 297 297 297 298 300 300 300 300 300 300 300 301 301 300 299 297 293 290 287 283 280 276 274 274 274 276 279 280 280 280 278 277 275 273 270 268 265 264 262 260 259 259 258 259 259 259 259 260 259 258 258 257 255 253 249 245 241 237 236 236 234 233 233 235 235 234 236 236 234 235 232 232 232 230 230 228
321 320 319 317 315 312 310 307 305 301 299 297 296 296 296 297 298 299 299 300 300 301 301 301 302 302 300 299 296 293 289 285 282 279 277 276 276 278 279 280 281 280 278 277 274 271 268 266 265 263 262 262 261 261 260 260 260 260 261 260 260 258 256 255 253 253 252 249 245 240 237 237 236 235 233 234 235 233 235 236 236 236 233 233 233 231 231 228
322 322 322 321 319 316 313 310 308 305 302 299 297 296 295 296 297 298 299 300 301 302 303 303 303 304 302 301 298 294 290 286 284 282 281 279 280 280 281 281 281 281 280 278 275 272 270 268 266 265 264 263 263 263 263 263 262 262 263 263 262 261 258 256 252 251 251 251 248 243 239 237 237 237 234 233 234 232 232 235 236 237 236 234 233 231 229 226
321 322 323 324 323 321 317 313 309 306 304 302 300 298 297 296 297 298 299 300 301 303 303 304 305 305 303 301 298 294 290 287 286 285 284 283 283 282 282 282 282 282 280 278 276 273 272 270 269 268 267 266 266 266 266 265 266 266 266 266 265 264 262 259 255 252 250 249 248 245 242 239 237 237 235 233 232 231 230 232 235 237 237 235 233 231 228 223
319 319 320 321 322 321 320 316 312 308 305 304 303 301 299 298 298 298 299 300 302 303 304 305 305 304 302 299 296 293 290 288 287 287 286 285 285 284 283 283 282 281 278 276 274 272 272 272 271 270 270 271 270 270 271 272 273 273 272 271 270 268 265 261 257 253 250 248 247 245 242 240 238 236 235 233 231 229 227 228 232 235 236 235 232 230 227 220
316 316 316 317 318 319 318 317 315 311 307 304 304 303 302 300 299 299 300 302 303 305 305 305 305 304 301 298 294 291 289 288 288 288 287 286 285 285 284 282 281 279 276 273 270 270 271 269 267 268 273 276 276 277 279 281 282 281 279 277 274 271 268 264 259 255 251 249 246 243 239 237 237 235 233 231 229 227 225 225 228 232 234 235 232 227 225 220
315 314 313 313 314 316 317 318 317 314 309 305 304 304 304 302 301 301 302 303 305 306 305 305 305 303 300 296 293 291 290 290 290 289 289 288 286 284 282 281 280 277 274 271 269 268 266 265 267 272 280 283 284 286 287 288 289 287 285 282 278 273 268 264 261 256 251 248 245 242 238 233 234 235 232 229 227 225 223 222 224 228 232 234 233 228 224 223
314 314 313 312 313 314 316 317 317 315 311 307 305 305 305 304 303 303 305 306 307 307 306 306 305 303 300 295 292 291 291 291 291 290 290 288 286 284 281 279 276 273 272 270 268 264 263 267 274 281 286 288 291 292 292 292 292 290 288 284 280 273 265 262 260 257 253 249 246 243 239 233 231 234 233 229 227 225 223 222 221 224 229 231 232 230 226 224
313 314 314 314 313 314 314 314 313 311 310 307 305 305 306 305 305 306 307 309 309 308 308 307 305 304 300 297 293 292 291 291 291 291 289 286 284 282 280 276 272 269 269 268 263 260 264 273 280 287 291 292 295 295 294 293 292 291 288 283 278 270 262 259 258 257 254 251 248 244 240 234 230 232 231 228 227 225 224 223 221 221 226 229 230 230 228 225
311 312 313 313 313 313 314 317 314 308 306 307 304 304 305 305 306 307 308 310 310 310 309 308 306 304 301 297 294 293 293 293 294 293 289 284 280 277 274 268 265 264 264 263 259 261 270 279 286 291 293 294 295 294 291 290 290 291 287 281 277 269 261 259 258 256 252 249 248 244 240 235 228 230 232 228 226 225 225 224 222 220 223 228 229 229 229 227
312 311 311 311 313 313 314 321 322 312 304 306 304 303 304 304 305 307 309 311 311 310 309 309 307 304 300 296 294 295 295 295 294 292 288 284 277 271 266 262 262 262 261 260 261 269 280 287 291 293 293 294 293 290 288 289 289 287 282 278 276 270 263 261 260 258 253 248 246 244 241 235 226 228 232 231 226 224 225 225 223 220 220 226 229 229 229 229
316 315 314 314 314 313 313 318 323 317 308 307 305 303 303 303 303 306 309 310 310 310 311 310 308 304 300 296 295 297 298 296 293 290 287 284 277 269 264 261 262 262 263 264 268 278 288 292 293 292 291 292 290 286 287 289 287 282 277 273 271 268 264 262 260 259 257 252 249 247 243 231 221 224 228 229 226 222 223 225 224 221 219 222 227 229 229 230
322 321 320 319 317 315 313 315 318 316 310 308 306 303 302 302 303 305 309 310 310 311 312 310 307 303 300 296 296 300 298 294 292 290 287 283 277 270 264 263 264 266 269 270 273 284 294 296 294 290 290 291 288 284 286 289 285 280 276 272 269 266 262 261 259 257 257 255 251 251 245 222 209 217 222 223 224 222 222 224 224 223 219 220 224 228 229 229
325 325 324 323 321 318 317 316 316 314 311 308 305 303 303 303 304 306 310 311 312 313 312 310 306 303 302 300 300 302 297 291 289 287 284 281 275 269 266 265 265 266 269 272 278 288 298 299 293 290 291 290 286 284 285 286 283 278 275 273 271 265 259 257 259 257 255 253 249 249 244 221 206 211 215 218 221 222 222 223 225 224 221 220 222 226 229 229
326 326 326 325 324 321 320 320 319 315 313 310 305 302 303 303 304 307 311 313 313 314 313 311 308 306 304 304 304 303 297 290 287 283 279 275 271 269 267 263 259 258 262 270 280 290 299 299 293 291 291 289 288 286 285 284 281 278 276 274 272 267 258 252 255 255 253 250 245 244 240 225 213 213 213 214 217 220 222 223 225 226 224 222 222 224 228 229
327 326 326 326 325 324 323 323 321 318 315 312 307 304 303 303 304 307 311 312 313 314 314 313 311 307 305 304 303 301 297 293 288 280 272 266 263 263 262 259 258 257 261 270 279 289 297 296 291 290 291 290 288 286 284 284 282 277 275 275 274 269 258 249 249 251 250 247 241 239 239 231 223 218 215 215 215 217 222 224 226 227 226 224 223 224 226 228
327 327 326 325 325 325 324 324 323 320 317 313 310 307 306 305 305 308 311 313 314 314 315 313 310 306 304 304 302 300 297 295 289 280 272 266 262 261 260 260 261 263 267 273 279 289 295 292 289 291 291 290 289 287 284 284 282 277 276 275 273 270 260 248 244 245 246 243 239 239 239 235 230 223 219 218 217 216 217 222 226 228 229 227 225 225 226 227
328 328 327 326 326 326 325 324 323 321 318 315 312 310 308 308 308 310 312 314 315 316 316 313 309 306 304 302 300 297 294 292 288 283 279 275 270 266 266 267 267 267 270 274 280 289 293 290 290 291 292 291 292 290 285 282 282 280 279 277 273 270 263 249 240 240 241 241 240 242 241 238 235 229 223 221 221 219 217 218 223 228 230 229 228 227 228 229
329 329 328 327 328 327 325 324 322 321 321 318 315 312 311 310 311 312 313 315 316 317 317 313 308 304 303 302 300 298 297 294 289 284 282 279 275 273 273 273 271 270 270 275 282 289 292 292 290 291 292 293 294 290 282 278 279 279 278 276 272 268 263 255 242 235 237 239 240 242 243 241 239 235 231 227 224 221 219 217 219 224 229 230 230 229 229 231
330 329 329 329 329 328 326 323 323 323 323 320 316 313 312 312 313 314 315 314 315 317 314 310 306 302 303 302 301 301 299 296 290 283 281 277 274 275 276 275 273 272 273 278 283 288 292 292 291 292 293 294 294 289 281 276 279 279 276 272 270 267 263 260 249 234 233 237 239 239 240 240 240 239 238 235 231 225 220 217 216 219 226 229 229 230 230 231
331 330 330 330 329 329 327 325 324 324 323 320 316 314 313 313 315 317 317 316 317 316 311 308 304 302 303 300 300 299 294 292 291 291 289 280 275 276 276 277 276 275 274 276 281 287 290 290 291 293 294 293 290 284 278 276 276 277 276 274 273 269 263 261 252 234 231 236 239 238 238 240 240 239 238 238 238 234 225 219 216 216 221 226 227 226 228 229
332 330 331 330 329 330 328 327 326 325 322 319 316 314 313 315 318 319 319 318 318 314 309 309 305 302 302 299 297 295 293 295 297 298 296 289 287 284 280 279 275 273 272 274 281 285 288 290 293 294 294 292 286 280 277 274 269 270 274 276 276 271 262 257 247 235 234 236 238 239 238 239 240 239 238 238 239 240 234 224 217 215 216 221 224 223 224 226
332 331 332 331 331 331 330 330 328 325 323 319 316 313 314 319 321 320 319 319 316 311 309 310 307 304 302 299 296 294 297 301 301 296 289 288 290 283 279 278 275 276 276 276 280 282 287 291 293 295 295 292 288 285 283 276 269 269 272 272 272 269 262 255 246 239 239 236 235 239 239 238 237 236 235 237 238 240 239 231 221 216 214 217 220 221 221 223
333 332 333 333 332 332 332 331 329 327 324 321 318 316 319 323 322 320 320 319 315 311 309 309 307 305 304 301 298 298 302 304 300 291 281 282 283 277 276 277 279 283 278 273 277 283 288 290 294 300 300 294 289 285 283 279 273 272 273 274 273 270 266 259 249 241 239 235 231 236 241 242 240 235 232 234 236 236 238 236 229 221 216 216 219 220 220 222
334 333 333 334 333 332 333 333 331 328 326 325 325 324 326 326 323 322 321 319 315 313 312 309 307 309 310 308 306 305 306 303 296 289 285 283 278 274 275 278 283 285 281 280 285 289 290 290 298 308 307 300 290 281 278 278 277 274 274 276 273 270 267 260 251 241 238 236 232 236 242 244 244 239 232 232 233 235 236 237 236 229 220 216 218 219 221 222
333 333 334 334 334 332 333 334 332 329 329 330 330 330 330 326 324 323 321 319 317 315 315 310 308 313 314 311 309 308 306 300 292 286 284 279 274 276 278 280 283 284 284 287 291 293 291 291 300 308 309 305 293 281 276 275 276 273 271 269 264 263 260 254 250 245 241 237 231 234 241 243 243 237 229 228 229 230 233 235 237 236 229 220 217 219 221 223
332 334 334 334 334 333 334 336 333 330 332 332 331 331 329 325 326 324 322 322 321 320 319 316 313 313 310 307 306 306 304 298 292 281 267 261 265 274 279 280 283 284 287 293 301 305 302 301 304 304 305 305 296 284 277 273 271 269 264 260 259 260 258 253 253 252 248 240 231 232 238 243 245 238 230 227 226 225 227 230 234 238 237 226 217 217 220 222
332 333 333 334 335 334 336 337 333 330 331 332 332 331 328 327 328 326 326 327 327 325 323 318 315 312 310 309 308 308 307 301 295 282 261 254 262 272 274 272 276 283 289 300 308 310 307 309 308 304 305 305 299 286 273 265 263 262 255 250 257 261 257 250 250 252 250 243 238 239 243 247 249 246 241 236 233 232 228 225 228 233 239 233 220 216 217 220
331 333 332 333 335 335 337 338 333 329 328 330 331 332 330 329 328 328 332 331 327 326 320 312 312 311 311 312 311 312 309 303 298 285 262 254 262 269 266 263 267 279 291 300 304 306 308 310 308 307 306 305 300 282 265 263 264 258 244 240 250 255 252 242 238 245 249 248 249 247 245 246 248 247 244 240 237 235 231 230 227 222 229 235 225 216 215 216
330 332 331 332 334 337 338 337 332 327 326 327 331 333 331 329 330 333 335 330 324 323 314 308 313 314 313 313 313 315 310 303 298 286 266 253 257 263 263 266 273 285 295 300 302 306 310 310 307 308 305 302 296 277 267 269 268 256 240 238 245 252 253 244 238 243 248 252 252 246 243 242 239 233 233 237 239 238 237 237 230 223 224 228 222 218 215 214
328 330 330 331 334 337 338 336 330 325 324 327 332 334 331 329 332 333 333 329 324 322 318 317 322 323 320 317 316 316 311 304 296 286 273 260 258 261 264 272 282 293 299 302 305 309 312 311 310 309 303 296 290 275 266 266 263 252 239 239 243 249 248 244 245 246 249 259 256 244 236 227 220 210 206 210 224 234 237 236 232 231 229 215 211 218 219 217
327 329 328 330 333 336 338 335 329 324 323 328 334 333 329 330 332 331 332 333 326 322 325 328 328 325 323 320 318 316 311 304 294 282 270 262 261 262 265 273 284 296 305 308 308 312 316 316 314 314 305 292 287 282 267 260 258 247 237 238 242 245 242 241 248 249 258 277 264 235 219 210 205 200 202 200 171 183 204 211 215 213 206 200 197 203 209 215
325 326 326 328 331 334 336 333 327 322 323 329 335 331 327 330 330 327 330 332 325 324 329 329 327 326 324 323 321 317 311 304 294 278 264 260 262 262 265 272 282 297 308 311 310 315 321 319 316 316 311 298 291 286 268 256 253 244 234 231 234 237 236 241 250 256 283 319 26 152 185 200 191 184 207 224 231 225 137 167 178 169 185 205 209 190 184 192
322 323 324 326 329 331 334 331 325 321 324 331 335 330 326 328 326 322 324 327 327 330 331 328 326 326 327 327 324 317 310 303 293 278 262 257 259 260 266 273 283 298 307 312 314 319 323 322 319 317 313 305 291 279 264 248 242 240 233 228 228 226 226 240 252 264 323 21 83 93 87 143 175 184 214 192 169 166 100 140 165 168 176 200 213 209 196 188
320 321 322 324 326 328 331 329 323 320 324 331 333 329 326 325 322 317 318 324 331 335 331 326 327 328 329 329 325 316 308 301 291 273 256 254 257 260 268 277 287 298 304 312 318 322 325 325 323 317 314 310 291 273 263 246 235 232 230 229 229 222 215 231 236 204 32 49 80 84 72 62 119 204 350 107 116 105 90 113 147 185 182 177 195 208 213 209
318 319 320 322 323 325 328 327 322 320 324 330 332 329 325 321 316 310 313 325 333 332 329 328 331 332 330 329 325 318 310 300 287 259 241 241 249 259 272 283 292 297 303 315 322 325 329 329 324 319 319 319 294 260 255 245 232 227 226 229 232 221 206 213 204 152 92 88 100 101 90 58 40 51 60 90 105 95 92 94 96 136 184 183 187 197 203 209
316 317 318 319 320 322 325 325 323 322 324 329 330 327 323 318 312 305 310 324 330 328 328 333 335 334 333 330 326 322 315 303 284 249 227 221 238 272 292 300 300 298 305 319 324 327 335 335 330 330 333 332 303 243 249 238 222 219 221 225 231 222 205 208 196 141 106 105 111 113 111 92 73 77 79 89 96 93 102 103 89 91 111 157 185 198 202 207
313 314 315 316 317 319 322 323 322 319 319 325 326 324 321 316 307 300 308 321 329 331 333 334 336 338 338 335 331 327 321 308 287 247 219 219 250 285 307 313 304 298 308 321 324 329 343 345 339 343 346 343 327 237 247 216 204 211 217 221 228 223 204 207 199 138 120 117 111 113 124 125 121 112 104 105 103 102 114 111 100 91 89 114 151 180 200 211
311 312 312 314 315 316 318 319 318 314 314 319 323 322 321 315 303 297 308 323 330 336 337 333 336 341 341 338 334 331 327 316 292 249 218 221 250 279 305 312 300 296 309 317 319 327 348 354 347 351 357 353 340 248 192 179 188 207 215 219 226 222 203 200 201 153 136 134 124 126 141 145 148 150 146 145 130 73 104 104 117 162 204 215 200 180 197 215
308 309 310 312 313 312 313 315 314 311 309 315 321 322 320 313 301 298 309 323 330 335 337 335 338 344 343 340 337 335 334 327 295 238 214 218 244 271 297 307 296 296 307 310 315 327 346 358 358 4 9 5 354 228 180 175 190 209 215 219 223 220 204 195 202 179 156 155 145 145 168 172 162 159 156 163 201 278 286 281 271 264 265 264 261 253 243 238
305 306 308 310 310 309 309 312 313 310 309 314 321 323 319 307 296 298 309 321 328 333 336 337 342 346 345 343 340 339 341 334 286 221 211 216 239 269 295 304 292 294 303 305 315 330 342 354 7 21 19 10 10 36 185 189 201 213 217 218 220 221 212 198 198 194 179 176 175 179 199 211 199 183 166 168 221 271 289 291 285 281 283 282 281 280 274 269
301 303 305 307 307 306 306 309 312 310 310 315 321 323 320 304 289 295 306 314 324 332 336 340 344 347 347 346 343 340 342 327 258 220 215 219 238 271 296 307 291 291 298 303 314 327 337 346 6 29 30 19 18 39 115 167 187 207 216 215 216 222 221 207 197 196 193 194 203 215 228 243 253 251 241 239 253 278 294 298 294 288 282 278 276 278 278 276
298 300 303 304 304 305 305 306 308 307 308 314 320 323 322 305 287 290 299 307 319 330 337 341 345 347 348 348 343 337 334 305 246 223 217 221 239 269 294 301 291 291 294 299 311 323 332 338 355 25 37 35 32 44 72 93 117 152 187 201 207 213 216 210 202 199 201 207 215 229 244 256 265 267 264 260 261 269 278 286 292 292 288 284 279 278 277 275
295 298 300 302 303 303 303 305 307 306 307 312 318 322 319 305 287 286 293 301 313 328 338 342 343 346 349 349 343 330 323 290 245 226 218 224 243 269 289 288 281 290 288 290 307 320 327 333 345 14 32 35 33 39 57 70 77 92 145 183 195 202 205 207 209 210 213 219 224 234 245 253 262 266 270 271 270 271 275 282 289 291 289 287 283 280 279 277
292 295 298 300 301 301 301 303 306 306 306 309 315 319 314 299 285 283 291 299 312 328 339 341 342 345 349 350 343 325 310 281 246 232 225 228 245 268 288 283 267 269 272 279 302 320 324 327 338 3 21 26 26 30 40 52 60 62 89 176 193 204 210 215 223 229 233 238 242 246 250 254 259 264 270 274 274 276 281 286 290 289 286 283 280 278 277 276
288 292 295 298 299 299 297 300 304 305 305 309 314 316 308 294 282 281 290 300 312 327 337 341 343 345 347 348 343 321 302 283 251 236 228 229 238 255 273 277 268 264 265 272 300 317 320 322 331 353 10 15 18 21 28 39 48 50 42 194 203 211 219 227 236 241 245 251 255 258 262 263 264 268 271 274 276 280 284 287 288 286 282 280 278 277 275 274
284 288 291 295 297 296 294 296 301 303 304 308 312 310 303 290 279 279 289 300 310 320 330 339 343 345 346 347 344 325 301 280 247 235 229 227 234 244 253 265 281 273 260 263 296 313 318 322 329 341 355 5 11 12 17 28 35 36 30 11 225 220 224 231 241 247 251 255 258 261 266 269 271 274 276 277 279 281 284 287 288 290 292 293 289 284 279 275
Height
5799 5798 5797 5796 5795 5794 5793 5792 5791 5790 5789 5787 5786 5785 5784 5783 5782 5781 5780 5779 5778 5777 5776 5775 5774 5773 5773 5772 5772 5771 5771 5771 5771 5771 5771 5771 5771 5771 5770 5770 5770 5771 5771 5771 5771 5772 5772 5772 5772 5772 5772 5772 5773 5773 5773 5773 5773 5772 5772 5773 5775 5778 5780 5782 5783 5784 5786 5789 5791 5791 5791 5791 5792 5793 5793 5795 5797 5798 5799 5800 5802 5803 5805 5808 5811 5811 5812 5814
5798 5797 5795 5794 5793 5792 5790 5789 5789 5788 5787 5786 5784 5783 5782 5781 5780 5779 5778 5777 5776 5775 5774 5773 5772 5771 5770 5770 5769 5769 5769 5769 5768 5768 5768 5767 5768 5768 5768 5767 5767 5768 5768 5768 5769 5769 5769 5769 5769 5769 5769 5769 5769 5769 5769 5770 5770 5769 5769 5770 5772 5775 5777 5778 5779 5780 5782 5785 5787 5787 5787 5787 5789 5789 5790 5791 5793 5795 5797 5797 5800 5802 5803 5806 5808 5808 5811 5813
5796 5795 5794 5792 5791 5790 5788 5787 5786 5785 5784 5783 5782 5781 5780 5779 5778 5777 5776 5775 5774 5772 5772 5771 5769 5768 5768 5767 5767 5767 5766 5766 5766 5765 5765 5765 5765 5765 5765 5765 5765 5765 5765 5765 5765 5766 5766 5766 5766 5766 5766 5766 5766 5766 5766 5766 5766 5765 5765 5767 5769 5772 5773 5774 5775 5776 5779 5781 5783 5783 5782 5783 5784 5785 5786 5788 5790 5793 5794 5795 5797 5800 5801 5803 5805 5807 5809 5810
5794 5793 5792 5790 5789 5788 5786 5785 5784 5783 5782 5781 5780 5779 5777 5776 5776 5775 5773 5772 5771 5770 5769 5768 5767 5766 5765 5765 5764 5764 5763 5763 5763 5762 5762 5762 5762 5762 5762 5762 5762 5762 5762 5762 5762 5762 5763 5763 5763 5763 5763 5763 5763 5763 5762 5762 5762 5762 5763 5764 5766 5768 5768 5770 5771 5773 5775 5777 5779 5779 5778 5779 5780 5781 5783 5785 5787 5790 5791 5793 5795 5797 5799 5801 5803 5805 5807 5808
5792 5791 5790 5788 5787 5785 5784 5783 5782 5781 5780 5778 5777 5776 5775 5774 5773 5772 5771 5770 5769 5768 5767 5766 5765 5764 5763 5762 5761 5761 5760 5760 5759 5759 5759 5759 5759 5759 5759 5759 5759 5759 5759 5759 5759 5759 5759 5759 5759 5759 5759 5759 5759 5759 5759 5759 5759 5759 5760 5761 5762 5764 5765 5767 5768 5769 5770 5772 5774 5775 5774 5775 5776 5778 5780 5782 5785 5788 5788 5791 5792 5794 5797 5798 5800 5802 5805 5806
5791 5789 5788 5786 5785 5783 5782 5781 5779 5778 5777 5776 5775 5774 5773 5772 5771 5770 5769 5768 5767 5766 5765 5764 5763 5761 5760 5759 5759 5758 5757 5757 5756 5756 5756 5756 5756 5756 5756 5756 5756 5756 5756 5756 5756 5756 5756 5755 5755 5755 5755 5755 5755 5755 5755 5756 5756 5756 5756 5757 5758 5760 5761 5763 5764 5765 5766 5767 5769 5772 5772 5772 5774 5776 5778 5780 5784 5786 5786 5788 5790 5792 5794 5795 5797 5800 5803 5804
5789 5787 5786 5784 5783 5781 5780 5779 5777 5776 5774 5773 5772 5771 5770 5769 5768 5767 5766 5765 5764 5763 5762 5761 5760 5759 5758 5757 5756 5755 5754 5754 5753 5753 5753 5753 5753 5753 5753 5753 5753 5752 5752 5752 5752 5752 5752 5752 5751 5752 5752 5752 5752 5752 5752 5753 5753 5753 5753 5754 5754 5756 5757 5758 5760 5760 5761 5763 5765 5768 5769 5770 5772 5773 5775 5778 5781 5783 5784 5785 5787 5789 5791 5793 5795 5798 5801 5802
5787 5786 5784 5783 5781 5779 5778 5776 5775 5773 5772 5771 5770 5768 5767 5766 5765 5764 5763 5762 5761 5761 5759 5758 5757 5756 5755 5754 5753 5753 5752 5751 5751 5751 5751 5750 5750 5750 5750 5749 5749 5749 5749 5749 5749 5748 5748 5748 5748 5748 5748 5748 5749 5749 5749 5750 5750 5750 5750 5751 5751 5752 5753 5754 5755 5755 5756 5758 5760 5764 5766 5767 5769 5771 5773 5776 5778 5780 5782 5782 5784 5786 5789 5791 5793 5796 5799 5800
5786 5784 5782 5781 5779 5777 5776 5774 5773 5771 5770 5768 5767 5766 5765 5764 5763 5762 5761 5760 5759 5758 5757 5756 5755 5754 5753 5751 5751 5750 5750 5749 5749 5749 5748 5748 5747 5747 5746 5746 5746 5746 5745 5745 5745 5745 5745 5745 5745 5745 5745 5746 5746 5746 5747 5747 5747 5748 5748 5747 5747 5748 5748 5749 5750 5750 5752 5753 5755 5758 5762 5764 5766 5767 5770 5773 5774 5776 5779 5780 5781 5783 5786 5789 5792 5794 5797 5798
5784 5782 5780 5779 5777 5775 5774 5772 5770 5769 5767 5766 5765 5763 5762 5761 5760 5759 5758 5757 5756 5755 5754 5753 5752 5751 5750 5749 5748 5748 5747 5747 5747 5746 5746 5745 5744 5744 5743 5743 5743 5743 5742 5742 5742 5742 5742 5742 5742 5743 5743 5743 5743 5743 5744 5744 5744 5745 5745 5744 5744 5744 5744 5744 5745 5746 5747 5748 5749 5753 5757 5760 5762 5764 5767 5769 5770 5772 5774 5776 5778 5779 5782 5785 5789 5792 5794 5796
5782 5780 5778 5777 5775 5773 5772 5770 5768 5767 5765 5764 5762 5761 5760 5759 5757 5756 5755 5754 5753 5752 5751 5751 5749 5748 5748 5747 5746 5745 5745 5745 5744 5744 5743 5742 5742 5741 5740 5740 5740 5740 5740 5740 5740 5739 5740 5740 5740 5740 5741 5741 5741 5741 5741 5741 5741 5741 5741 5741 5741 5740 5739 5739 5740 5741 5743 5743 5744 5747 5751 5756 5758 5760 5761 5763 5765 5766 5769 5771 5773 5775 5778 5781 5785 5789 5792 5794
5780 5779 5777 5775 5773 5771 5770 5768 5766 5764 5763 5762 5760 5759 5758 5756 5755 5754 5753 5752 5751 5750 5749 5748 5747 5746 5745 5744 5743 5742 5742 5742 5742 5741 5740 5739 5739 5738 5738 5737 5737 5737 5737 5737 5738 5737 5738 5738 5738 5738 5738 5738 5738 5738 5738 5738 5738 5738 5738 5737 5737 5737 5735 5735 5735 5736 5738 5738 5739 5743 5747 5751 5753 5754 5755 5756 5759 5761 5763 5766 5768 5771 5774 5777 5781 5785 5789 5791
5778 5777 5775 5773 5771 5770 5768 5766 5764 5762 5761 5759 5758 5757 5756 5754 5753 5752 5751 5749 5748 5747 5746 5745 5744 5743 5742 5742 5741 5740 5740 5739 5739 5738 5737 5736 5736 5735 5735 5735 5735 5735 5735 5735 5735 5735 5735 5735 5736 5736 5736 5735 5735 5735 5735 5735 5735 5734 5734 5734 5734 5734 5732 5731 5731 5733 5734 5734 5736 5739 5742 5746 5748 5749 5748 5749 5753 5756 5759 5761 5764 5768 5770 5773 5777 5781 5785 5788
5776 5775 5773 5771 5770 5768 5766 5764 5762 5760 5758 5757 5756 5755 5753 5752 5751 5750 5748 5747 5746 5745 5743 5742 5742 5741 5740 5739 5738 5737 5737 5736 5736 5736 5735 5734 5733 5732 5732 5732 5733 5733 5733 5733 5733 5733 5733 5733 5733 5733 5733 5733 5732 5732 5731 5731 5731 5731 5730 5730 5731 5730 5729 5728 5728 5730 5731 5731 5733 5736 5737 5741 5744 5741 5740 5743 5748 5752 5755 5758 5761 5765 5767 5769 5773 5776 5780 5784
5774 5773 5771 5769 5768 5766 5764 5761 5759 5757 5756 5755 5754 5753 5751 5750 5749 5747 5746 5745 5743 5742 5741 5740 5739 5739 5737 5736 5735 5735 5734 5734 5733 5732 5732 5731 5731 5730 5730 5730 5730 5731 5732 5731 5731 5731 5731 5731 5730 5731 5730 5730 5730 5729 5728 5728 5728 5728 5727 5727 5727 5727 5726 5725 5726 5728 5729 5728 5729 5731 5733 5737 5738 5735 5734 5739 5744 5748 5751 5754 5758 5761 5763 5765 5768 5772 5775 5779
5772 5770 5769 5767 5765 5763 5761 5759 5757 5755 5753 5752 5752 5750 5749 5748 5747 5745 5744 5743 5741 5740 5738 5737 5736 5736 5735 5734 5733 5732 5732 5731 5730 5729 5729 5729 5728 5728 5728 5728 5728 5729 5730 5729 5729 5729 5728 5728 5728 5728 5728 5727 5727 5726 5725 5725 5725 5725 5724 5724 5724 5724 5724 5723 5724 5725 5726 5726 5726 5728 5731 5734 5733 5731 5733 5737 5740 5744 5747 5750 5754 5757 5760 5762 5765 5769 5772 5775
5770 5768 5766 5764 5763 5761 5759 5757 5755 5752 5751 5750 5749 5748 5747 5745 5744 5743 5742 5741 5739 5737 5736 5735 5734 5733 5733 5732 5731 5730 5730 5729 5727 5727 5726 5726 5726 5726 5726 5726 5726 5727 5727 5727 5727 5727 5726 5726 5726 5726 5725 5725 5724 5723 5723 5722 5722 5722 5722 5722 5721 5721 5721 5721 5722 5723 5724 5724 5724 5725 5729 5731 5730 5730 5732 5734 5736 5740 5743 5745 5749 5753 5756 5759 5761 5765 5768 5771
5767 5765 5764 5762 5760 5758 5757 5755 5753 5750 5748 5747 5747 5746 5745 5743 5742 5741 5741 5739 5737 5735 5734 5732 5731 5730 5730 5729 5729 5729 5728 5726 5725 5724 5724 5724 5724 5724 5724 5724 5724 5724 5725 5724 5724 5724 5724 5724 5724 5723 5723 5722 5721 5720 5720 5719 5719 5719 5719 5719 5719 5719 5719 5719 5720 5721 5721 5722 5723 5724 5727 5728 5728 5729 5730 5731 5733 5735 5739 5741 5744 5749 5753 5756 5758 5761 5764 5768
5766 5764 5762 5760 5758 5756 5754 5753 5750 5748 5746 5745 5744 5743 5742 5741 5740 5739 5738 5736 5734 5733 5732 5730 5729 5728 5727 5727 5726 5727 5726 5724 5724 5723 5721 5721 5722 5722 5722 5722 5722 5722 5722 5722 5722 5722 5722 5721 5721 5721 5720 5719 5719 5718 5717 5717 5716 5717 5717 5717 5717 5716 5716 5716 5717 5718 5719 5720 5721 5722 5724 5726 5726 5727 5727 5729 5731 5733 5735 5738 5741 5745 5749 5753 5756 5757 5760 5764
5764 5762 5760 5758 5756 5754 5752 5750 5748 5746 5744 5742 5741 5741 5740 5739 5738 5737 5736 5734 5732 5731 5729 5728 5727 5726 5725 5725 5724 5724 5723 5723 5722 5721 5720 5719 5719 5719 5720 5720 5720 5721 5721 5721 5720 5720 5720 5719 5719 5718 5717 5717 5716 5715 5715 5714 5714 5714 5715 5715 5714 5714 5714 5714 5714 5716 5717 5718 5718 5719 5722 5724 5725 5725 5726 5727 5729 5731 5733 5736 5738 5741 5745 5749 5752 5755 5757 5760
5762 5760 5758 5756 5754 5752 5750 5748 5746 5744 5742 5740 5739 5738 5738 5737 5735 5735 5733 5732 5730 5729 5727 5726 5725 5724 5723 5723 5722 5721 5721 5720 5720 5720 5719 5718 5718 5718 5719 5719 5719 5719 5719 5719 5718 5718 5718 5717 5716 5715 5715 5714 5714 5713 5712 5712 5712 5712 5712 5712 5712 5712 5712 5712 5713 5713 5715 5715 5716 5718 5720 5722 5724 5724 5724 5725 5727 5729 5731 5733 5735 5737 5741 5745 5748 5751 5754 5757
5761 5759 5756 5754 5752 5750 5747 5746 5744 5742 5740 5738 5737 5736 5735 5734 5733 5732 5731 5730 5728 5727 5725 5724 5723 5722 5721 5721 5720 5719 5718 5718 5718 5717 5717 5717 5717 5717 5717 5717 5717 5717 5717 5717 5716 5716 5715 5715 5714 5713 5713 5712 5711 5711 5710 5710 5710 5710 5710 5710 5710 5710 5710 5710 5710 5711 5712 5713 5714 5716 5718 5720 5721 5722 5722 5723 5725 5727 5729 5731 5733 5734 5737 5740 5744 5747 5750 5753
5759 5757 5755 5752 5750 5748 5745 5743 5741 5740 5738 5736 5735 5734 5733 5732 5730 5729 5728 5727 5726 5725 5724 5722 5721 5720 5719 5719 5718 5717 5717 5716 5716 5715 5715 5715 5715 5715 5715 5715 5715 5715 5715 5714 5714 5713 5713 5712 5712 5711 5710 5710 5709 5708 5708 5708 5708 5708 5708 5708 5708 5708 5708 5708 5709 5709 5710 5711 5712 5714 5716 5717 5719 5720 5720 5721 5723 5725 5727 5729 5730 5732 5734 5736 5739 5743 5746 5749
5758 5756 5753 5750 5748 5746 5743 5741 5739 5737 5736 5735 5733 5732 5731 5730 5729 5727 5726 5725 5723 5723 5721 5720 5719 5718 5717 5717 5716 5716 5715 5715 5714 5713 5713 5713 5712 5712 5713 5713 5712 5713 5712 5712 5712 5711 5711 5710 5710 5709 5708 5708 5707 5706 5706 5706 5706 5706 5706 5705 5705 5705 5705 5706 5707 5707 5708 5709 5710 5711 5713 5715 5716 5718 5718 5719 5721 5723 5725 5727 5728 5730 5731 5734 5736 5739 5742 5745
5756 5754 5751 5748 5746 5744 5741 5739 5737 5735 5734 5733 5731 5730 5729 5728 5727 5726 5724 5723 5722 5721 5720 5719 5718 5717 5716 5715 5714 5714 5713 5713 5713 5712 5712 5711 5711 5711 5711 5711 5710 5711 5710 5710 5709 5709 5709 5708 5707 5707 5706 5705 5705 5704 5703 5704 5704 5704 5703 5703 5703 5702 5702 5703 5704 5705 5706 5706 5707 5708 5710 5711 5713 5715 5716 5717 5719 5721 5722 5724 5726 5727 5729 5731 5733 5736 5738 5741
5755 5752 5750 5747 5744 5742 5740 5737 5735 5734 5732 5731 5730 5728 5727 5726 5725 5724 5723 5721 5720 5719 5718 5717 5716 5715 5715 5714 5713 5712 5711 5711 5711 5710 5710 5710 5710 5710 5709 5709 5709 5709 5709 5708 5708 5707 5707 5706 5705 5705 5704 5703 5703 5702 5701 5702 5702 5702 5701 5701 5701 5701 5701 5701 5702 5703 5703 5704 5705 5706 5706 5708 5710 5712 5714 5715 5716 5718 5719 5721 5723 5725 5727 5728 5730 5733 5735 5738
5753 5750 5748 5745 5742 5740 5738 5736 5734 5732 5730 5729 5728 5726 5725 5724 5723 5722 5721 5720 5718 5717 5715 5715 5715 5714 5713 5712 5712 5711 5710 5710 5709 5709 5708 5708 5708 5708 5708 5708 5707 5707 5707 5706 5706 5706 5705 5704 5703 5702 5702 5701 5700 5700 5699 5700 5700 5700 5699 5699 5699 5699 5699 5699 5700 5701 5702 5702 5703 5703 5704 5706 5707 5709 5711 5713 5714 5715 5715 5717 5720 5722 5724 5725 5727 5729 5732 5734
5752 5749 5746 5744 5741 5739 5736 5734 5732 5730 5729 5727 5726 5725 5723 5722 5721 5720 5719 5718 5717 5715 5714 5714 5713 5713 5712 5711 5711 5710 5709 5709 5708 5708 5707 5706 5706 5706 5706 5706 5706 5706 5705 5705 5704 5704 5703 5702 5701 5701 5700 5699 5698 5698 5698 5698 5698 5698 5698 5697 5697 5697 5697 5697 5698 5699 5700 5701 5701 5702 5702 5703 5704 5706 5708 5710 5711 5712 5712 5714 5716 5718 5720 5722 5724 5726 5729 5731
5750 5747 5745 5742 5740 5737 5735 5733 5731 5728 5727 5725 5724 5723 5722 5721 5720 5719 5718 5717 5716 5714 5713 5712 5712 5711 5711 5710 5710 5709 5709 5708 5707 5706 5706 5705 5705 5705 5705 5705 5704 5704 5704 5703 5703 5702 5701 5700 5699 5699 5699 5698 5697 5696 5696 5696 5696 5696 5696 5695 5695 5695 5695 5695 5696 5697 5697 5699 5700 5700 5700 5701 5702 5704 5706 5707 5709 5710 5710 5711 5713 5714 5717 5719 5720 5722 5725 5728
5749 5746 5744 5741 5738 5735 5733 5731 5729 5727 5725 5724 5722 5721 5720 5720 5719 5717 5716 5715 5714 5713 5712 5711 5710 5710 5710 5709 5708 5708 5707 5707 5706 5705 5705 5704 5704 5704 5704 5703 5703 5703 5702 5702 5701 5701 5700 5699 5698 5698 5697 5696 5695 5694 5694 5694 5694 5694 5694 5693 5693 5693 5693 5693 5693 5694 5695 5697 5698 5698 5698 5700 5701 5702 5704 5705 5706 5707 5708 5709 5710 5711 5713 5716 5718 5720 5723 5725
5747 5745 5742 5740 5737 5734 5732 5730 5727 5725 5724 5723 5721 5720 5719 5718 5717 5716 5715 5714 5713 5711 5711 5710 5709 5709 5709 5708 5707 5706 5706 5705 5705 5704 5703 5703 5703 5702 5702 5702 5702 5701 5701 5700 5700 5699 5698 5698 5697 5696 5695 5694 5693 5692 5692 5692 5692 5692 5692 5692 5692 5691 5691 5691 5692 5692 5693 5695 5696 5697 5696 5697 5698 5700 5702 5703 5704 5705 5706 5707 5707 5708 5710 5713 5716 5719 5722 5724
5746 5744 5741 5739 5736 5733 5731 5728 5726 5724 5723 5722 5721 5719 5718 5717 5716 5715 5713 5712 5711 5710 5709 5709 5709 5708 5708 5707 5706 5705 5704 5703 5703 5703 5702 5702 5702 5701 5701 5701 5701 5700 5700 5699 5698 5697 5697 5696 5695 5695 5693 5693 5692 5691 5690 5690 5690 5690 5690 5690 5690 5690 5690 5690 5691 5691 5692 5693 5694 5694 5695 5695 5696 5698 5700 5701 5701 5702 5703 5704 5705 5707 5708 5711 5714 5717 5719 5721
5744 5742 5740 5737 5735 5732 5729 5727 5725 5723 5722 5721 5720 5719 5717 5716 5714 5713 5712 5711 5710 5709 5709 5708 5708 5707 5706 5706 5705 5704 5703 5702 5702 5702 5701 5701 5701 5701 5700 5700 5700 5699 5698 5698 5696 5695 5695 5694 5693 5693 5692 5691 5690 5689 5689 5689 5688 5688 5688 5689 5689 5689 5689 5689 5690 5690 5691 5692 5692 5693 5694 5694 5695 5697 5698 5699 5699 5700 5701 5702 5704 5705 5706 5707 5711 5713 5715 5718
5743 5741 5738 5736 5734 5731 5728 5726 5725 5723 5722 5720 5719 5718 5716 5714 5713 5712 5711 5709 5708 5708 5708 5708 5708 5707 5705 5704 5703 5703 5702 5701 5700 5700 5700 5700 5700 5700 5700 5699 5698 5698 5697 5696 5695 5694 5693 5693 5692 5691 5690 5690 5689 5688 5687 5687 5687 5686 5687 5687 5687 5688 5688 5688 5689 5689 5690 5690 5691 5692 5692 5692 5693 5695 5696 5696 5697 5698 5699 5700 5701 5703 5703 5702 5705 5708 5711 5714
5741 5739 5737 5735 5733 5730 5728 5726 5724 5723 5721 5720 5719 5717 5715 5714 5712 5711 5709 5708 5707 5707 5707 5707 5707 5706 5705 5703 5702 5702 5701 5700 5699 5698 5698 5698 5698 5699 5698 5698 5697 5697 5696 5695 5694 5693 5692 5691 5690 5689 5688 5688 5687 5686 5686 5686 5685 5685 5686 5686 5686 5686 5687 5688 5688 5688 5689 5689 5689 5689 5690 5691 5692 5693 5694 5695 5696 5696 5697 5698 5699 5700 5700 5698 5700 5703 5707 5709
5740 5738 5736 5733 5731 5729 5727 5725 5723 5722 5721 5719 5718 5716 5714 5713 5711 5710 5708 5707 5707 5706 5706 5706 5706 5705 5704 5702 5701 5700 5699 5698 5697 5697 5697 5697 5697 5698 5697 5697 5696 5696 5695 5694 5693 5692 5691 5690 5688 5688 5687 5686 5685 5685 5685 5684 5684 5684 5685 5685 5685 5685 5686 5687 5687 5687 5688 5688 5688 5688 5688 5690 5691 5692 5693 5694 5695 5695 5695 5696 5697 5698 5697 5696 5697 5700 5703 5705
5739 5737 5734 5732 5730 5728 5726 5724 5723 5722 5720 5719 5717 5715 5713 5712 5710 5709 5708 5707 5706 5706 5705 5705 5704 5704 5703 5701 5700 5699 5698 5697 5696 5696 5695 5695 5696 5696 5696 5695 5695 5695 5694 5693 5692 5691 5690 5688 5686 5686 5685 5684 5683 5683 5683 5683 5683 5683 5683 5683 5684 5685 5685 5686 5686 5686 5687 5686 5686 5686 5687 5688 5690 5691 5691 5691 5692 5693 5694 5694 5695 5695 5695 5695 5696 5698 5700 5701
5737 5736 5733 5731 5728 5726 5724 5723 5722 5721 5720 5718 5716 5714 5713 5711 5709 5708 5707 5706 5706 5705 5704 5704 5703 5703 5702 5701 5699 5697 5696 5695 5695 5694 5694 5694 5694 5695 5694 5694 5694 5693 5693 5692 5691 5690 5689 5687 5685 5684 5683 5682 5682 5682 5681 5681 5681 5682 5682 5682 5683 5684 5685 5685 5686 5686 5686 5685 5685 5685 5686 5688 5689 5690 5691 5690 5691 5693 5692 5692 5693 5693 5693 5694 5695 5697 5699 5700
5736 5734 5732 5729 5727 5725 5723 5722 5721 5720 5719 5717 5716 5714 5712 5711 5709 5707 5707 5706 5705 5705 5704 5703 5702 5701 5700 5699 5698 5696 5694 5693 5693 5692 5692 5693 5693 5693 5693 5693 5693 5692 5692 5691 5690 5689 5688 5686 5684 5683 5682 5681 5680 5680 5680 5680 5680 5680 5680 5681 5682 5683 5684 5685 5685 5686 5685 5685 5685 5686 5687 5688 5689 5690 5691 5691 5691 5692 5692 5691 5692 5693 5693 5694 5695 5697 5699 5700
5734 5732 5730 5728 5726 5724 5722 5720 5719 5718 5717 5716 5715 5714 5712 5710 5709 5707 5706 5706 5705 5704 5703 5703 5701 5700 5699 5698 5697 5695 5693 5692 5691 5691 5691 5692 5692 5692 5692 5692 5692 5691 5691 5690 5689 5688 5687 5685 5683 5682 5680 5679 5679 5678 5678 5678 5678 5678 5679 5679 5680 5682 5684 5684 5685 5685 5685 5685 5686 5687 5688 5689 5689 5690 5691 5691 5692 5693 5692 5692 5692 5693 5693 5694 5695 5697 5698 5699
5733 5731 5729 5727 5725 5723 5721 5719 5718 5717 5716 5715 5714 5713 5711 5710 5708 5707 5706 5705 5704 5704 5703 5702 5701 5699 5698 5697 5695 5693 5691 5690 5690 5690 5690 5691 5691 5691 5691 5691 5691 5690 5690 5689 5688 5687 5686 5684 5683 5681 5679 5678 5677 5677 5677 5676 5677 5677 5678 5678 5679 5681 5683 5684 5684 5685 5685 5685 5686 5687 5688 5689 5690 5690 5691 5691 5692 5693 5693 5693 5693 5693 5693 5694 5695 5697 5698 5699
5731 5729 5728 5726 5723 5721 5719 5718 5716 5716 5715 5714 5712 5712 5711 5709 5708 5707 5705 5705 5704 5703 5702 5701 5700 5699 5697 5695 5693 5691 5690 5689 5689 5689 5690 5690 5690 5690 5691 5690 5690 5689 5689 5689 5688 5687 5686 5684 5682 5680 5678 5676 5676 5675 5675 5675 5676 5677 5677 5677 5678 5680 5682 5683 5684 5685 5685 5685 5686 5687 5688 5689 5690 5691 5691 5692 5692 5693 5694 5693 5693 5694 5694 5695 5696 5697 5698 5699
5729 5728 5726 5724 5722 5720 5718 5716 5715 5714 5714 5713 5712 5711 5710 5709 5708 5707 5705 5704 5703 5702 5701 5699 5698 5697 5696 5694 5692 5690 5689 5688 5688 5688 5689 5690 5690 5690 5690 5690 5689 5689 5689 5688 5687 5686 5685 5683 5681 5680 5678 5676 5675 5675 5674 5674 5675 5676 5677 5677 5678 5680 5682 5683 5684 5684 5685 5685 5686 5686 5687 5689 5690 5691 5692 5692 5693 5693 5694 5694 5694 5695 5695 5696 5696 5697 5698 5699
5727 5726 5724 5723 5721 5719 5717 5715 5714 5714 5713 5712 5711 5710 5709 5708 5707 5706 5705 5704 5703 5702 5700 5699 5698 5696 5695 5693 5691 5689 5688 5687 5687 5688 5689 5689 5689 5689 5689 5689 5689 5688 5688 5687 5687 5686 5685 5683 5681 5680 5678 5676 5675 5675 5674 5675 5675 5676 5676 5677 5677 5679 5682 5683 5683 5684 5685 5685 5686 5687 5687 5688 5690 5691 5692 5693 5693 5693 5694 5694 5694 5695 5695 5696 5696 5696 5698 5699
5725 5724 5723 5722 5720 5718 5716 5714 5713 5712 5712 5711 5711 5709 5708 5707 5706 5706 5705 5703 5702 5701 5700 5699 5697 5696 5694 5692 5690 5688 5688 5687 5687 5688 5688 5689 5689 5689 5689 5689 5688 5688 5688 5687 5686 5685 5684 5683 5682 5680 5678 5677 5676 5675 5675 5675 5676 5676 5676 5676 5677 5678 5681 5683 5683 5684 5685 5685 5686 5687 5687 5688 5689 5690 5692 5693 5693 5693 5693 5693 5694 5694 5694 5695 5695 5696 5697 5698
5723 5722 5721 5720 5718 5717 5715 5713 5712 5711 5710 5710 5709 5708 5707 5706 5705 5705 5704 5703 5701 5700 5699 5698 5696 5695 5693 5691 5689 5688 5688 5687 5687 5688 5688 5688 5688 5688 5689 5688 5688 5688 5687 5686 5686 5685 5684 5684 5682 5680 5679 5678 5677 5676 5676 5676 5676 5676 5676 5676 5677 5678 5680 5682 5683 5684 5684 5685 5686 5687 5687 5688 5689 5690 5691 5692 5693 5692 5692 5692 5693 5693 5693 5693 5694 5695 5696 5696
5721 5720 5719 5718 5717 5715 5714 5712 5711 5709 5708 5708 5708 5707 5706 5705 5704 5704 5703 5702 5701 5700 5699 5697 5696 5694 5693 5691 5689 5688 5688 5687 5687 5687 5688 5688 5688 5688 5688 5688 5688 5687 5687 5686 5685 5685 5684 5684 5683 5681 5680 5679 5678 5677 5676 5676 5676 5676 5676 5677 5677 5678 5680 5682 5683 5683 5684 5685 5686 5686 5687 5688 5689 5690 5690 5691 5692 5692 5692 5692 5692 5692 5693 5693 5694 5694 5694 5695
5718 5718 5717 5716 5715 5714 5713 5711 5710 5708 5707 5706 5706 5705 5704 5704 5703 5703 5703 5702 5701 5700 5698 5697 5695 5694 5692 5690 5689 5688 5688 5687 5687 5687 5687 5688 5688 5688 5688 5688 5687 5687 5686 5686 5685 5685 5684 5684 5683 5682 5680 5679 5679 5678 5677 5677 5677 5677 5677 5677 5678 5678 5679 5681 5682 5683 5683 5684 5685 5686 5687 5687 5688 5688 5689 5690 5690 5691 5691 5691 5692 5692 5692 5692 5692 5692 5692 5692
5716 5715 5715 5714 5713 5712 5711 5710 5708 5707 5706 5705 5704 5704 5703 5702 5702 5702 5702 5702 5701 5699 5698 5696 5695 5694 5692 5690 5688 5688 5687 5687 5687 5687 5687 5687 5687 5688 5688 5688 5687 5687 5686 5686 5685 5685 5684 5683 5683 5682 5681 5680 5679 5678 5678 5677 5677 5677 5677 5677 5678 5678 5679 5680 5681 5682 5683 5683 5684 5685 5686 5686 5687 5687 5688 5688 5689 5689 5689 5690 5691 5691 5690 5690 5689 5689 5689 5689
5713 5713 5712 5712 5711 5710 5709 5708 5707 5706 5705 5704 5703 5702 5702 5701 5701 5701 5701 5701 5700 5699 5697 5696 5695 5693 5691 5689 5688 5687 5687 5686 5686 5687 5687 5687 5687 5687 5687 5687 5687 5687 5686 5686 5685 5685 5684 5683 5683 5682 5681 5680 5680 5679 5678 5678 5678 5677 5677 5678 5678 5679 5679 5680 5680 5681 5682 5682 5683 5684 5685 5685 5686 5686 5687 5687 5687 5687 5688 5688 5689 5688 5688 5687 5687 5687 5687 5687
5711 5710 5710 5709 5709 5708 5707 5706 5705 5704 5703 5702 5702 5701 5700 5700 5700 5700 5700 5700 5699 5698 5697 5696 5694 5693 5691 5689 5687 5686 5686 5686 5686 5686 5686 5686 5687 5687 5687 5687 5687 5687 5687 5686 5686 5685 5684 5684 5683 5683 5682 5681 5680 5680 5679 5679 5678 5678 5678 5678 5679 5679 5679 5680 5680 5681 5682 5682 5682 5683 5683 5684 5684 5685 5686 5685 5685 5685 5686 5686 5686 5686 5685 5685 5684 5684 5684 5684
5708 5708 5708 5707 5707 5706 5705 5704 5704 5703 5702 5701 5700 5700 5699 5699 5699 5699 5699 5699 5699 5698 5697 5696 5694 5692 5690 5688 5687 5686 5685 5685 5685 5685 5686 5686 5686 5687 5687 5687 5687 5687 5687 5687 5686 5685 5685 5685 5684 5683 5683 5682 5681 5681 5680 5680 5679 5679 5679 5679 5679 5679 5680 5680 5680 5681 5681 5681 5682 5682 5682 5683 5683 5684 5684 5684 5684 5684 5684 5684 5684 5684 5683 5683 5682 5681 5681 5681